N12SX KSAV-KCLT

Flight info

Callsign N12SX
Flight time 1h 4m
Altitude 6500
Route
Aircraft COL4/L-DOV/C

Departure

Time 2026-05-06 00:17
Airport Savannah Hilton Head International Airport (KSAV)

Arrival

Time 2026-05-06 01:22
Airport Charlotte Douglas International Airport (KCLT)
Time Latitude Longitude Altitude Speed Heading
2026-05-06 00:03 32.12243 -81.19645 45 ft 0 kts
2026-05-06 00:09 32.12255 -81.19650 45 ft 5 kts 295°
2026-05-06 00:09 32.12263 -81.19689 44 ft 7 kts 286°
2026-05-06 00:09 32.12280 -81.19721 44 ft 4 kts 337°
2026-05-06 00:10 32.12303 -81.19759 44 ft 11 kts 315°
2026-05-06 00:10 32.12331 -81.19804 45 ft 0 kts 334°
2026-05-06 00:10 32.12333 -81.19805 45 ft 3 kts 341°
2026-05-06 00:10 32.12389 -81.19812 47 ft 8 kts 359°
2026-05-06 00:11 32.12456 -81.19815 49 ft 12 kts
2026-05-06 00:11 32.12510 -81.19814 50 ft 7 kts
2026-05-06 00:11 32.12574 -81.19815 50 ft 8 kts
2026-05-06 00:11 32.12643 -81.19813 50 ft 13 kts
2026-05-06 00:12 32.12728 -81.19815 51 ft 11 kts
2026-05-06 00:12 32.12764 -81.19815 52 ft 0 kts
2026-05-06 00:13 32.12851 -81.19815 52 ft 19 kts 359°
2026-05-06 00:13 32.12986 -81.19817 51 ft 19 kts 358°
2026-05-06 00:13 32.13114 -81.19820 51 ft 17 kts 357°
2026-05-06 00:14 32.13208 -81.19818 54 ft 18 kts 355°
2026-05-06 00:14 32.13335 -81.19818 56 ft 17 kts 357°
2026-05-06 00:14 32.13448 -81.19818 56 ft 15 kts
2026-05-06 00:14 32.13534 -81.19830 58 ft 0 kts 335°
2026-05-06 00:15 32.13555 -81.19881 61 ft 11 kts 273°
2026-05-06 00:15 32.13555 -81.19901 59 ft 0 kts 274°
2026-05-06 00:16 32.13554 -81.19970 64 ft 12 kts 261°
2026-05-06 00:16 32.13504 -81.20011 64 ft 7 kts 171°
2026-05-06 00:16 32.13287 -81.20008 56 ft 62 kts 181°
2026-05-06 00:17 32.12700 -81.20002 81 ft 105 kts 178°
2026-05-06 00:17 32.11913 -81.19958 473 ft 109 kts 176°
2026-05-06 00:17 32.11273 -81.19924 841 ft 81 kts 173°
2026-05-06 00:17 32.10654 -81.19890 815 ft 105 kts 173°
2026-05-06 00:18 32.09858 -81.19816 957 ft 124 kts 172°
2026-05-06 00:18 32.09067 -81.19439 1081 ft 128 kts 137°
2026-05-06 00:18 32.08700 -81.18475 1277 ft 133 kts 101°
2026-05-06 00:18 32.09010 -81.17394 1293 ft 155 kts 46°
2026-05-06 00:19 32.10109 -81.17064 1451 ft 161 kts
2026-05-06 00:19 32.11135 -81.17041 1569 ft 160 kts
2026-05-06 00:19 32.12314 -81.17111 1763 ft 173 kts 354°
2026-05-06 00:19 32.13450 -81.17702 1884 ft 183 kts 319°
2026-05-06 00:20 32.14194 -81.18883 2055 ft 179 kts 296°
2026-05-06 00:20 32.14788 -81.20161 2230 ft 178 kts 294°
2026-05-06 00:20 32.15414 -81.21406 2532 ft 175 kts 301°
2026-05-06 00:20 32.16355 -81.22326 2717 ft 183 kts 340°
2026-05-06 00:21 32.17621 -81.22412 2941 ft 183 kts
2026-05-06 00:21 32.18890 -81.22303 3162 ft 183 kts
2026-05-06 00:21 32.20170 -81.22155 3342 ft 185 kts
2026-05-06 00:21 32.21430 -81.21990 3648 ft 181 kts
2026-05-06 00:22 32.22676 -81.21830 3911 ft 180 kts
2026-05-06 00:22 32.23904 -81.21653 4151 ft 181 kts
2026-05-06 00:22 32.25146 -81.21453 4363 ft 175 kts
2026-05-06 00:22 32.26337 -81.21262 4346 ft 179 kts
2026-05-06 00:23 32.27587 -81.21060 4540 ft 181 kts
2026-05-06 00:23 32.28832 -81.20853 4790 ft 180 kts
2026-05-06 00:23 32.30068 -81.20644 5053 ft 179 kts
2026-05-06 00:23 32.31308 -81.20432 5274 ft 181 kts
2026-05-06 00:24 32.32561 -81.20209 5489 ft 182 kts
2026-05-06 00:24 32.33816 -81.19988 5722 ft 183 kts
2026-05-06 00:24 32.35076 -81.19764 5952 ft 183 kts
2026-05-06 00:24 32.36340 -81.19534 6178 ft 184 kts
2026-05-06 00:25 32.37609 -81.19299 6416 ft 185 kts
2026-05-06 00:25 32.38887 -81.19058 6560 ft 190 kts
2026-05-06 00:25 32.40222 -81.18815 6564 ft 198 kts
2026-05-06 00:25 32.41587 -81.18562 6569 ft 201 kts
2026-05-06 00:26 32.42981 -81.18310 6571 ft 204 kts
2026-05-06 00:26 32.44393 -81.18060 6570 ft 206 kts
2026-05-06 00:26 32.45814 -81.17810 6572 ft 207 kts
2026-05-06 00:26 32.47243 -81.17559 6570 ft 208 kts
2026-05-06 00:27 32.48673 -81.17304 6574 ft 208 kts
2026-05-06 00:27 32.50104 -81.17047 6575 ft 208 kts
2026-05-06 00:27 32.51535 -81.16794 6575 ft 208 kts
2026-05-06 00:27 32.52952 -81.16573 6569 ft 207 kts
2026-05-06 00:28 32.54387 -81.16404 6570 ft 207 kts
2026-05-06 00:28 32.55817 -81.16238 6568 ft 199 kts
2026-05-06 00:28 32.57080 -81.16077 6551 ft 168 kts
2026-05-06 00:28 32.58161 -81.15923 6554 ft 146 kts
2026-05-06 00:29 32.59266 -81.15749 6559 ft 173 kts
2026-05-06 00:29 32.60526 -81.15567 6572 ft 190 kts
2026-05-06 00:29 32.61870 -81.15384 6574 ft 199 kts
2026-05-06 00:29 32.63260 -81.15198 6567 ft 203 kts
2026-05-06 00:30 32.64672 -81.15014 6568 ft 205 kts
2026-05-06 00:30 32.66094 -81.14831 6568 ft 206 kts
2026-05-06 00:30 32.67524 -81.14647 6567 ft 207 kts
2026-05-06 00:30 32.68959 -81.14464 6568 ft 207 kts
2026-05-06 00:31 32.70394 -81.14279 6566 ft 207 kts
2026-05-06 00:31 32.71828 -81.14092 6565 ft 207 kts
2026-05-06 00:31 32.73260 -81.13905 6566 ft 207 kts
2026-05-06 00:31 32.74694 -81.13719 6560 ft 207 kts
2026-05-06 00:32 32.76125 -81.13531 6563 ft 207 kts
2026-05-06 00:32 32.77559 -81.13349 6561 ft 207 kts
2026-05-06 00:32 32.78992 -81.13165 6562 ft 207 kts
2026-05-06 00:32 32.80426 -81.12982 6560 ft 207 kts
2026-05-06 00:33 32.81858 -81.12797 6560 ft 207 kts
2026-05-06 00:33 32.83292 -81.12607 6560 ft 208 kts
2026-05-06 00:33 32.84728 -81.12418 6557 ft 208 kts
2026-05-06 00:33 32.86169 -81.12230 6556 ft 208 kts
2026-05-06 00:34 32.87609 -81.12042 6555 ft 208 kts
2026-05-06 00:34 32.89051 -81.11846 6555 ft 208 kts
2026-05-06 00:34 32.90492 -81.11659 6556 ft 208 kts
2026-05-06 00:34 32.91934 -81.11466 6554 ft 209 kts
2026-05-06 00:35 32.93356 -81.11277 6554 ft 208 kts
2026-05-06 00:35 32.94796 -81.11084 6555 ft 208 kts
2026-05-06 00:35 32.96235 -81.10892 6554 ft 208 kts
2026-05-06 00:35 32.97674 -81.10697 6554 ft 208 kts
2026-05-06 00:36 32.99113 -81.10504 6554 ft 208 kts
2026-05-06 00:36 33.00548 -81.10318 6554 ft 208 kts
2026-05-06 00:36 33.01993 -81.10133 6553 ft 209 kts
2026-05-06 00:36 33.03437 -81.09945 6554 ft 209 kts
2026-05-06 00:37 33.04880 -81.09763 6555 ft 209 kts
2026-05-06 00:37 33.06324 -81.09573 6550 ft 208 kts
2026-05-06 00:37 33.07764 -81.09389 6551 ft 208 kts
2026-05-06 00:37 33.09205 -81.09204 6550 ft 208 kts
2026-05-06 00:38 33.10646 -81.09017 6551 ft 208 kts
2026-05-06 00:38 33.12086 -81.08832 6550 ft 208 kts
2026-05-06 00:38 33.13528 -81.08647 6552 ft 209 kts
2026-05-06 00:38 33.14974 -81.08462 6551 ft 209 kts
2026-05-06 00:39 33.16420 -81.08273 6549 ft 209 kts
2026-05-06 00:39 33.17862 -81.08091 6548 ft 208 kts
2026-05-06 00:39 33.19302 -81.07903 6548 ft 208 kts
2026-05-06 00:39 33.20741 -81.07714 6549 ft 208 kts
2026-05-06 00:40 33.22180 -81.07523 6549 ft 208 kts
2026-05-06 00:40 33.23618 -81.07329 6550 ft 208 kts
2026-05-06 00:40 33.25057 -81.07133 6550 ft 208 kts
2026-05-06 00:40 33.26496 -81.06944 6553 ft 208 kts
2026-05-06 00:41 33.27449 -81.06820 6550 ft 208 kts
2026-05-06 00:41 33.28886 -81.06632 6550 ft 208 kts
2026-05-06 00:41 33.30321 -81.06444 6551 ft 207 kts
2026-05-06 00:41 33.32221 -81.06194 6551 ft 207 kts
2026-05-06 00:42 33.33653 -81.06007 6553 ft 207 kts
2026-05-06 00:42 33.35084 -81.05817 6553 ft 207 kts
2026-05-06 00:42 33.36517 -81.05627 6560 ft 208 kts
2026-05-06 00:42 33.37491 -81.05503 6556 ft 209 kts
2026-05-06 00:43 33.38938 -81.05320 6557 ft 209 kts
2026-05-06 00:43 33.40391 -81.05139 6558 ft 210 kts
2026-05-06 00:43 33.41845 -81.04958 6558 ft 210 kts
2026-05-06 00:43 33.43303 -81.04775 6559 ft 210 kts
2026-05-06 00:44 33.44759 -81.04596 6559 ft 210 kts
2026-05-06 00:44 33.46213 -81.04411 6531 ft 210 kts
2026-05-06 00:44 33.47665 -81.04231 6528 ft 210 kts
2026-05-06 00:44 33.49097 -81.04055 6527 ft 210 kts
2026-05-06 00:45 33.50550 -81.03880 6527 ft 210 kts
2026-05-06 00:45 33.52007 -81.03701 6526 ft 210 kts
2026-05-06 00:45 33.53461 -81.03514 6527 ft 210 kts
2026-05-06 00:45 33.54916 -81.03330 6526 ft 210 kts
2026-05-06 00:46 33.56370 -81.03187 6525 ft 209 kts 359°
2026-05-06 00:46 33.57821 -81.03057 6526 ft 209 kts 360°
2026-05-06 00:46 33.59274 -81.02932 6527 ft 209 kts 359°
2026-05-06 00:46 33.60726 -81.02808 6527 ft 209 kts 359°
2026-05-06 00:47 33.62182 -81.02686 6526 ft 210 kts 359°
2026-05-06 00:47 33.63642 -81.02563 6525 ft 211 kts 359°
2026-05-06 00:47 33.65352 -81.02454 6523 ft 210 kts 354°
2026-05-06 00:47 33.68232 -81.02876 6522 ft 208 kts 347°
2026-05-06 00:48 33.70322 -81.03227 6523 ft 209 kts 347°
2026-05-06 00:48 33.71736 -81.03561 6522 ft 206 kts 340°
2026-05-06 00:48 33.73151 -81.03835 6513 ft 210 kts 358°
2026-05-06 00:48 33.74617 -81.03694 6514 ft 212 kts
2026-05-06 00:49 33.76086 -81.03529 6523 ft 213 kts
2026-05-06 00:49 33.77562 -81.03371 6518 ft 212 kts
2026-05-06 00:49 33.79032 -81.03230 6520 ft 212 kts
2026-05-06 00:49 33.80504 -81.03085 6519 ft 212 kts
2026-05-06 00:50 33.81975 -81.02942 6519 ft 212 kts
2026-05-06 00:50 33.83444 -81.02796 6518 ft 211 kts
2026-05-06 00:50 33.84909 -81.02648 6519 ft 211 kts
2026-05-06 00:50 33.86375 -81.02498 6519 ft 212 kts
2026-05-06 00:51 33.87842 -81.02347 6528 ft 212 kts
2026-05-06 00:51 33.89313 -81.02192 6530 ft 213 kts
2026-05-06 00:51 33.90794 -81.02053 6527 ft 214 kts
2026-05-06 00:51 33.92284 -81.01917 6529 ft 215 kts
2026-05-06 00:52 33.93776 -81.01781 6529 ft 215 kts
2026-05-06 00:52 33.95271 -81.01639 6528 ft 215 kts
2026-05-06 00:52 33.96766 -81.01502 6529 ft 216 kts
2026-05-06 00:52 33.98265 -81.01362 6530 ft 216 kts
2026-05-06 00:53 33.99764 -81.01221 6532 ft 216 kts
2026-05-06 00:53 34.01267 -81.01079 6530 ft 217 kts
2026-05-06 00:53 34.02749 -81.00944 6529 ft 217 kts
2026-05-06 00:53 34.04252 -81.00804 6530 ft 216 kts
2026-05-06 00:54 34.05752 -81.00666 6529 ft 216 kts
2026-05-06 00:54 34.07249 -81.00530 6528 ft 215 kts
2026-05-06 00:54 34.08745 -81.00395 6528 ft 216 kts
2026-05-06 00:54 34.10244 -81.00260 6528 ft 216 kts
2026-05-06 00:55 34.11743 -81.00123 6529 ft 216 kts
2026-05-06 00:55 34.13242 -80.99986 6528 ft 216 kts
2026-05-06 00:55 34.14744 -80.99853 6529 ft 217 kts
2026-05-06 00:55 34.16253 -80.99729 6528 ft 218 kts
2026-05-06 00:56 34.17765 -80.99612 6532 ft 218 kts
2026-05-06 00:56 34.19282 -80.99493 6530 ft 219 kts
2026-05-06 00:56 34.20800 -80.99378 6531 ft 218 kts
2026-05-06 00:56 34.22316 -80.99260 6534 ft 218 kts
2026-05-06 00:57 34.23833 -80.99139 6531 ft 219 kts
2026-05-06 00:57 34.25351 -80.99015 6535 ft 219 kts
2026-05-06 00:57 34.26870 -80.98891 6532 ft 219 kts
2026-05-06 00:57 34.28387 -80.98767 6537 ft 218 kts
2026-05-06 00:58 34.29908 -80.98646 6379 ft 225 kts
2026-05-06 00:58 34.31504 -80.98525 6197 ft 228 kts
2026-05-06 00:58 34.33094 -80.98409 6001 ft 229 kts
2026-05-06 00:58 34.34687 -80.98303 5820 ft 230 kts
2026-05-06 00:59 34.36285 -80.98201 5618 ft 231 kts
2026-05-06 00:59 34.37863 -80.98103 5220 ft 231 kts
2026-05-06 00:59 34.39496 -80.98012 4813 ft 238 kts
2026-05-06 00:59 34.41156 -80.97940 4581 ft 234 kts 359°
2026-05-06 01:00 34.42732 -80.97941 4682 ft 221 kts 356°
2026-05-06 01:00 34.44260 -80.97973 4690 ft 217 kts 356°
2026-05-06 01:00 34.45768 -80.98064 4695 ft 216 kts 354°
2026-05-06 01:00 34.47236 -80.98342 4744 ft 209 kts 342°
2026-05-06 01:01 34.48641 -80.98638 4774 ft 215 kts 359°
2026-05-06 01:01 34.50149 -80.98546 4750 ft 218 kts 360°
2026-05-06 01:01 34.51682 -80.98474 4628 ft 223 kts
2026-05-06 01:01 34.53238 -80.98398 4573 ft 224 kts
2026-05-06 01:02 34.54791 -80.98318 4536 ft 223 kts
2026-05-06 01:02 34.56332 -80.98243 4534 ft 221 kts
2026-05-06 01:02 34.57862 -80.98168 4536 ft 220 kts
2026-05-06 01:02 34.59389 -80.98086 4538 ft 220 kts
2026-05-06 01:03 34.60892 -80.98011 4533 ft 218 kts
2026-05-06 01:03 34.62412 -80.97936 4535 ft 219 kts
2026-05-06 01:03 34.63933 -80.97862 4534 ft 219 kts
2026-05-06 01:03 34.65453 -80.97789 4535 ft 219 kts
2026-05-06 01:04 34.66978 -80.97711 4540 ft 220 kts
2026-05-06 01:04 34.68511 -80.97639 4540 ft 221 kts
2026-05-06 01:04 34.70045 -80.97563 4542 ft 221 kts
2026-05-06 01:04 34.71583 -80.97480 4540 ft 221 kts
2026-05-06 01:05 34.73120 -80.97407 4541 ft 221 kts
2026-05-06 01:05 34.74654 -80.97338 4542 ft 221 kts
2026-05-06 01:05 34.76187 -80.97269 4540 ft 220 kts
2026-05-06 01:05 34.77718 -80.97202 4539 ft 220 kts
2026-05-06 01:06 34.79247 -80.97139 4537 ft 220 kts 360°
2026-05-06 01:06 34.80781 -80.97066 4536 ft 220 kts
2026-05-06 01:06 34.82309 -80.96999 4535 ft 220 kts
2026-05-06 01:06 34.83841 -80.96934 4534 ft 221 kts
2026-05-06 01:07 34.85375 -80.96863 4521 ft 220 kts
2026-05-06 01:07 34.86907 -80.96794 4521 ft 220 kts
2026-05-06 01:07 34.88437 -80.96721 4521 ft 220 kts
2026-05-06 01:07 34.89962 -80.96657 4521 ft 219 kts
2026-05-06 01:08 34.91487 -80.96591 4526 ft 220 kts
2026-05-06 01:08 34.92999 -80.96521 4525 ft 220 kts 360°
2026-05-06 01:08 34.94480 -80.96443 4517 ft 197 kts
2026-05-06 01:08 34.95752 -80.96357 4506 ft 171 kts
2026-05-06 01:09 34.96865 -80.96287 4505 ft 151 kts
2026-05-06 01:09 34.97844 -80.96219 4499 ft 130 kts 359°
2026-05-06 01:09 34.98795 -80.96140 4520 ft 156 kts
2026-05-06 01:09 34.99992 -80.96062 4536 ft 187 kts 360°
2026-05-06 01:10 35.01357 -80.95987 4531 ft 204 kts 359°
2026-05-06 01:10 35.02811 -80.95907 4531 ft 213 kts
2026-05-06 01:10 35.04303 -80.95827 4527 ft 216 kts
2026-05-06 01:10 35.05813 -80.95757 4525 ft 217 kts
2026-05-06 01:11 35.07211 -80.95683 4516 ft 189 kts
2026-05-06 01:11 35.08475 -80.95599 4330 ft 181 kts
2026-05-06 01:11 35.09722 -80.95516 4120 ft 178 kts 360°
2026-05-06 01:11 35.10965 -80.95439 3856 ft 180 kts
2026-05-06 01:12 35.12206 -80.95363 3645 ft 177 kts 360°
2026-05-06 01:12 35.13438 -80.95284 3425 ft 177 kts
2026-05-06 01:12 35.14653 -80.95180 3248 ft 176 kts
2026-05-06 01:12 35.15862 -80.95073 2989 ft 171 kts
2026-05-06 01:13 35.16979 -80.94884 2795 ft 153 kts 39°
2026-05-06 01:13 35.17690 -80.93748 1918 ft 181 kts 63°
2026-05-06 01:13 35.18375 -80.92621 1988 ft 158 kts 57°
2026-05-06 01:13 35.18993 -80.91575 1987 ft 145 kts 63°
2026-05-06 01:14 35.20145 -80.89615 1936 ft 139 kts 60°
2026-05-06 01:14 35.20973 -80.89043 1684 ft 152 kts 346°
2026-05-06 01:14 35.21761 -80.89653 1675 ft 129 kts 328°
2026-05-06 01:15 35.22662 -80.89997 1741 ft 138 kts 339°
2026-05-06 01:15 35.23546 -80.90227 1690 ft 127 kts 346°
2026-05-06 01:15 35.24380 -80.90424 1595 ft 120 kts 347°
2026-05-06 01:15 35.25203 -80.90554 1504 ft 115 kts 354°
2026-05-06 01:16 35.25954 -80.90622 1466 ft 105 kts 353°
2026-05-06 01:16 35.26662 -80.90732 1478 ft 105 kts 347°
2026-05-06 01:16 35.27514 -80.90887 1548 ft 145 kts 348°
2026-05-06 01:16 35.28567 -80.91118 1724 ft 167 kts 347°
2026-05-06 01:17 35.29735 -80.91204 1981 ft 169 kts 358°
2026-05-06 01:17 35.30962 -80.91173 2101 ft 184 kts 358°
2026-05-06 01:17 35.32244 -80.91186 2270 ft 183 kts 347°
2026-05-06 01:17 35.33078 -80.92088 2471 ft 151 kts 270°
2026-05-06 01:18 35.32479 -80.92711 2383 ft 134 kts 183°
2026-05-06 01:18 35.31558 -80.92941 2259 ft 135 kts 198°
2026-05-06 01:18 35.30665 -80.93355 2121 ft 139 kts 200°
2026-05-06 01:18 35.29774 -80.93684 1865 ft 122 kts 189°
2026-05-06 01:19 35.28997 -80.93789 1683 ft 110 kts 183°
2026-05-06 01:19 35.28280 -80.93815 1612 ft 93 kts 185°
2026-05-06 01:19 35.27646 -80.93872 1457 ft 96 kts 182°
2026-05-06 01:19 35.26977 -80.93866 1334 ft 95 kts 179°
2026-05-06 01:20 35.26316 -80.93829 1195 ft 94 kts 177°
2026-05-06 01:20 35.25712 -80.93559 1057 ft 87 kts 187°
2026-05-06 01:20 35.25129 -80.93676 940 ft 81 kts 181°
2026-05-06 01:20 35.24554 -80.93706 1030 ft 74 kts 182°
2026-05-06 01:21 35.23977 -80.93697 1038 ft 88 kts 179°
2026-05-06 01:21 35.23408 -80.93671 957 ft 80 kts 180°
2026-05-06 01:21 35.22872 -80.93625 858 ft 75 kts 176°
2026-05-06 01:21 35.22319 -80.93590 769 ft 88 kts 178°
2026-05-06 01:22 35.21695 -80.93539 721 ft 86 kts 175°
2026-05-06 01:22 35.21335 -80.93516 714 ft 11 kts 178°
2026-05-06 01:22 35.21255 -80.93511 714 ft 13 kts 175°
2026-05-06 01:22 35.21227 -80.93507 716 ft 5 kts 154°
2026-05-06 01:23 35.21175 -80.93445 714 ft 13 kts 131°
2026-05-06 01:23 35.21147 -80.93406 715 ft 0 kts 129°
2026-05-06 01:24 35.21131 -80.93384 713 ft 12 kts 129°
2026-05-06 01:24 35.21123 -80.93287 714 ft 0 kts 85°
2026-05-06 01:25 35.21125 -80.93244 714 ft 20 kts 92°
2026-05-06 01:25 35.21138 -80.93145 714 ft 1 kts 62°
2026-05-06 01:25 35.21093 -80.93125 715 ft 9 kts 176°
2026-05-06 01:26 35.21035 -80.93119 713 ft 7 kts 177°
2026-05-06 01:26 35.21021 -80.93118 713 ft 0 kts 181°